Change the Weather History Date:

Sunday, December 2, 2012

  Actual Average Record
Temperature  
Mean Temperature 36 °F 21 °F  
Max Temperature 47 °F 31 °F 60 °F (1949)
Min Temperature 25 °F 11 °F -24 °F (1985)
Degree Days  
Heating Degree Days 29 44  
Month to date heating degree days 63 88  
Since 1 July heating degree days 2060 2074  
Cooling Degree Days 0 0  
Month to date cooling degree days 0 0  
Year to date cooling degree days 599 520  
Moisture  
Dew Point 31 °F    
Average Humidity 83    
Maximum Humidity 100    
Minimum Humidity 65    
Precipitation  
Precipitation 0.00 in 0.01 in 0.65 in (1889)
Month to date precipitation 0.00 0.03  
Year to date precipitation 14.27 17.39  
Snow  
Snow 0.00 in 0.30 in 6.50 in (1889)
Month to date snowfall 0.0 0.6  
Since 1 July snowfall 10.5 11.8  
Snow Depth T in    
Sea Level Pressure  
Sea Level Pressure 29.66 in    
Wind  
Wind Speed 7 mph (SE)    
Max Wind Speed 14 mph    
Max Gust Speed 16 mph    
Visibility 7 miles    
Events Fog    
T = Trace of Precipitation, MM = Missing Value Source: NWS Daily Summary

Daily Weather History Graph

Daily Weather History Graph

Search for Another Location

Airport or City:

Trip Planner

Search our weather history database for the weather conditions in past years. The results will help you decide how hot, cold, wet, or windy it might be!

Date:

Astronomy

Dec. 02, 2012 Rise Set
Actual Time 8:09 AM CST 4:56 PM CST
Civil Twilight 7:34 AM CST 5:30 PM CST
Nautical Twilight 6:56 AM CST 6:08 PM CST
Astronomical Twilight 6:19 AM CST 6:45 PM CST
Moon 8:52 PM CST (12/2) 10:54 AM CST (12/2)
Length of Visible Light 9h 56m
Length of Day
8h 47m
Waning Gibbous, 85% of the Moon is Illuminated
Dec 2
Waning Gibbous
Dec 6
Last Quarter
Dec 13
New
Dec 19
First Quarter
Dec 28
Full

Hourly Weather History & Observations

Time (CST) Temp. Windchill Dew Point Humidity Pressure Visibility Wind Dir Wind Speed Gust Speed Precip Events Conditions
12:52 AM 33.1 °F 25.5 °F 33.1 °F 100% 29.84 in 0.2 mi SE 9.2 mph - N/A Fog Fog
1:40 AM 33.8 °F 27.0 °F 33.8 °F 100% 29.79 in 0.5 mi SSE 8.1 mph - N/A Fog Fog
1:52 AM 33.1 °F 26.9 °F 33.1 °F 100% 29.83 in 0.5 mi SE 6.9 mph - N/A Fog Fog
2:33 AM 32.0 °F 24.8 °F 32.0 °F 100% 29.78 in 0.8 mi SSE 8.1 mph - N/A   Mist
2:52 AM 32.0 °F 24.2 °F 32.0 °F 100% 29.83 in 0.8 mi SSE 9.2 mph - N/A   Mist
3:03 AM 32.0 °F 25.6 °F 30.2 °F 93% 29.79 in 0.5 mi SSE 6.9 mph - N/A Fog Fog
3:16 AM 30.2 °F 25.4 °F 30.2 °F 100% 29.79 in 0.8 mi SE 4.6 mph - N/A   Mist
3:28 AM 30.2 °F 25.4 °F 30.2 °F 100% 29.78 in 0.5 mi SE 4.6 mph - N/A Fog Light Freezing Fog
3:52 AM 30.9 °F 24.3 °F 30.9 °F 100% 29.83 in 0.8 mi SSE 6.9 mph - N/A   Mist
4:13 AM 30.2 °F 26.7 °F 30.2 °F 100% 29.77 in 1.8 mi SSE 3.5 mph - N/A   Mostly Cloudy
4:18 AM 30.2 °F - 30.2 °F 100% 29.77 in 3.0 mi Calm Calm - N/A   Mostly Cloudy
4:27 AM 28.4 °F 24.6 °F 28.4 °F 100% 29.77 in 4.0 mi South 3.5 mph - N/A   Scattered Clouds
4:52 AM 28.0 °F - 28.0 °F 100% 29.83 in 6.0 mi Calm Calm - N/A   Clear
5:52 AM 26.1 °F 21.9 °F 26.1 °F 100% 29.82 in 8.0 mi SE 3.5 mph - N/A   Clear
6:52 AM 26.1 °F 20.5 °F 25.0 °F 96% 29.80 in 9.0 mi ESE 4.6 mph - N/A   Clear
7:52 AM 26.1 °F 20.5 °F 25.0 °F 96% 29.81 in 9.0 mi ESE 4.6 mph - N/A   Clear
8:52 AM 26.1 °F 21.9 °F 25.0 °F 96% 29.80 in 7.0 mi SE 3.5 mph - N/A   Clear
9:52 AM 30.9 °F 26.2 °F 30.9 °F 100% 29.78 in 9.0 mi ESE 4.6 mph - N/A   Clear
10:52 AM 34.0 °F 26.6 °F 33.1 °F 96% 29.71 in 10.0 mi SE 9.2 mph - N/A   Clear
11:52 AM 39.0 °F 33.4 °F 34.0 °F 82% 29.69 in 10.0 mi ESE 8.1 mph - N/A   Clear
12:52 PM 42.1 °F 37.1 °F 34.0 °F 73% 29.63 in 10.0 mi ESE 8.1 mph - N/A   Clear
1:52 PM 45.0 °F 41.2 °F 35.1 °F 68% 29.59 in 10.0 mi East 6.9 mph - N/A   Clear
2:52 PM 46.9 °F - 36.0 °F 66% 29.53 in 10.0 mi SE 10.4 mph - N/A   Clear
3:52 PM 46.0 °F 41.4 °F 36.0 °F 68% 29.51 in 10.0 mi SSE 9.2 mph - N/A   Clear
4:52 PM 44.1 °F 38.1 °F 35.1 °F 71% 29.49 in 10.0 mi SSE 11.5 mph - N/A   Clear
5:52 PM 43.0 °F 38.2 °F 33.1 °F 68% 29.47 in 10.0 mi SE 8.1 mph - N/A   Clear
6:52 PM 42.1 °F 38.4 °F 33.1 °F 70% 29.44 in 10.0 mi ESE 5.8 mph - N/A   Clear
7:52 PM 39.0 °F 32.8 °F 32.0 °F 76% 29.41 in 10.0 mi ESE 9.2 mph - N/A   Clear
8:52 PM 37.9 °F 32.7 °F 32.0 °F 79% 29.40 in 10.0 mi SE 6.9 mph - N/A   Clear
9:52 PM 39.0 °F 34.8 °F 32.0 °F 76% 29.37 in 10.0 mi ESE 5.8 mph - N/A   Clear
10:52 PM 39.9 °F 36.7 °F 32.0 °F 73% 29.36 in 10.0 mi ESE 4.6 mph - N/A   Clear
11:52 PM 39.9 °F 35.8 °F 32.0 °F 73% 29.35 in 10.0 mi SE 5.8 mph - N/A   Clear